Simultaneous Nadir Overpasses (SNOs) Predictions

Prediction of SNOs between LANDSAT-8 and NOAA-19 Satellite Orbit:

Table of predicted SNOs for the next 14.0 days since TLE Epoch: 2/22/2025
Index Date (LANDSAT-8) Time (LANDSAT-8) Lat,Lon (LANDSAT-8) SZA (LANDSAT-8 ) Date (NOAA-19) Time (NOAA-19) Lat,Lon (NOAA-19) SZA (NOAA-19 ) Distance(km) Time Diff (sec)
1 02/24/2025 09:54:16 -79.62,-124.05 90.45 02/24/2025 09:53:52 -79.62,-124.07 90.46 0.44 24
2 02/24/2025 10:43:38 79.76, 44.66 89.74 02/24/2025 10:44:43 79.75, 44.56 89.75 2.18 65
3 02/26/2025 16:17:38 -79.07, 136.52 92.04 02/26/2025 16:16:24 -79.14, 136.20 92.00 10.59 74
4 02/26/2025 17:06:48 79.68, -51.78 88.78 02/26/2025 17:07:03 79.67, -51.80 88.78 0.49 15
5 02/28/2025 23:29:57 79.60,-148.08 87.83 02/28/2025 23:29:22 79.61,-147.93 87.84 3.27 35
6 03/01/2025 00:19:21 -79.72, 20.41 92.02 03/01/2025 00:20:18 -79.73, 20.49 91.99 1.84 57
7 03/03/2025 06:42:31 -79.59, -76.29 93.06 03/03/2025 06:42:39 -79.59, -76.43 93.07 2.94 8
8 03/05/2025 13:05:39 -79.52,-172.58 94.02 03/05/2025 13:04:57 -79.52,-172.54 94.03 0.83 42
9 03/05/2025 13:55:01 79.66, -3.96 86.16 03/05/2025 13:55:50 79.67, -3.91 86.19 1.42 49



Historial Predications of SNOs between LANDSAT-8 and NOAA-19
